[[{"header":{"parameterUnit":"m.s-1","parameterCategory":1,"la1":30.2991,"la2":30.254,"lo1":-89.0895,"lo2":-89.0444,"dy":0.0017,"dx":0.0017,"nx":28,"ny":28,"refTime":"2024-07-27T03:00:00:Z","depth":0,"parameterNumber":2,"parameterNumberName":"U-component_of_WINDS"},"data":[0,0,0,0,0,0,0,0,0,0,0,0,0,0,0,0,0,0,0,0,0,0,0,0,0,0,0,0,0,0,0,0,0,0,0,0,0,0,0,0,0,0,0,0,0,0,0,0,0,0,0,0,0,0,0,0,0,0,-2.1105,-2.1107,0,-2.1237,-2.1239,-2.124,-2.1306,-2.1306,-2.1306,-2.1306,-2.1442,-2.1445,-2.1449,0,0,0,0,0,0,0,0,0,0,0,0,0,-2.0911,-2.0915,-2.1105,-2.1107,-2.1109,-2.1237,-2.1239,-2.1241,-2.1306,-2.1306,-2.1306,-2.1306,-2.1441,-2.1445,-2.1449,0,0,0,0,0,0,0,0,0,0,0,0,0,-2.1015,-2.0916,-2.1105,-2.1157,-2.1163,-2.1237,-2.1239,-2.1241,-2.1306,-2.1306,-2.1306,-2.1306,-2.1439,-2.1445,-2.145,-2.1482,0,0,-2.1466,-2.1469,0,0,0,0,0,0,0,0,-2.1009,-2.1022,-2.1147,-2.1153,-2.116,-2.1255,-2.122,-2.1322,-2.1306,-2.1252,-2.1306,-2.1307,-2.138,-2.139,-2.1415,-2.1489,-2.1495,-2.1467,-2.147,-2.1472,-2.1474,0,0,0,0,0,0,0,-2.1001,-2.1016,-2.1158,-2.1149,-2.1157,-2.1174,-2.1189,-2.124,-2.1314,-2.1257,-2.1262,-2.1276,-2.1383,-2.1409,-2.1419,-2.1497,-2.1467,-2.1471,-2.1475,-2.1477,-2.1606,-2.1606,0,0,0,0,0,0,-2.0986,-2.101,-2.1153,-2.1162,-2.1083,-2.1177,-2.1194,-2.1225,-2.1314,-2.1327,-2.1276,-2.1279,-2.14,-2.1412,-2.1424,-2.1469,-2.1472,-2.1477,-2.148,-2.1606,-2.1606,-2.1606,0,0,0,0,0,0,-2.0981,-2.0998,-2.1148,-2.1087,-2.1108,-2.1181,-2.1215,-2.1227,-2.1254,-2.1329,-2.1342,-2.1289,-2.1401,-2.1416,-2.1468,-2.1474,-2.148,-2.1485,-2.1605,-2.1606,-2.1606,-2.1558,0,0,0,0,0,0,-2.0975,-2.0996,-2.1009,-2.1087,-2.1111,-2.1189,-2.1215,-2.123,-2.1263,-2.1268,-2.1344,-2.1357,-2.1402,-2.1459,-2.1473,-2.1482,-2.1489,-2.1605,-2.1605,-2.1606,-2.1559,-2.1557,-2.1554,0,0,0,0,0,-2.0968,-2.099,-2.1009,-2.1026,-2.1128,-2.119,-2.1203,-2.1254,-2.1263,-2.1277,-2.1325,-2.1355,-2.1471,-2.1464,-2.148,-2.149,-2.1605,-2.1605,-2.1606,-2.1561,-2.1557,-2.1554,0,0,0,0,0,0,-2.091,-2.1001,-2.1023,-2.107,-2.1122,-2.1201,-2.1219,-2.1249,-2.1299,-2.1301,-2.1363,-2.138,-2.1426,-2.1464,-2.1454,-2.1528,-2.1541,-2.1545,-2.1501,-2.1499,-2.1496,-2.1486,-2.1493,0,0,0,0,0,-2.0903,-2.0945,-2.1022,-2.1056,-2.1081,-2.1145,-2.1174,-2.1209,-2.1265,-2.1287,-2.1339,-2.1392,-2.1441,-2.1472,-2.1521,-2.1565,-2.1584,-2.158,-2.1578,-2.1575,-2.1578,-2.1605,-2.1605,-2.1607,-2.1607,-2.1607,0,0,-2.0888,-2.0943,-2.0965,-2.1046,-2.109,-2.1133,-2.1163,-2.1207,-2.124,-2.1294,-2.1346,-2.1386,-2.145,-2.1498,-2.1522,-2.1531,-2.1582,-2.1576,-2.1574,-2.1578,-2.1606,-2.1606,-2.1605,-2.1608,-2.1608,-2.1608,0,0,-2.0883,-2.0928,-2.0962,-2.1006,-2.1072,-2.1115,-2.1123,-2.1198,-2.1227,-2.128,-2.1322,-2.1362,-2.1445,-2.1489,-2.1522,-2.1535,-2.1564,-2.1549,-2.1536,-2.1562,-2.1562,-2.1562,-2.1567,-2.1568,-2.1551,-2.1551,-2.1551,0,-2.0856,-2.0922,-2.0976,-2.1018,-2.1052,-2.1104,-2.1139,-2.1179,-2.1258,-2.1281,-2.1289,-2.1395,-2.1441,-2.1501,-2.1505,-2.1529,-2.1541,-2.154,-2.1557,-2.1558,-2.1559,-2.1565,-2.1566,-2.1549,-2.1549,-2.1549,-2.1549,0,-2.0886,-2.0931,-2.0951,-2.1026,-2.1063,-2.1101,-2.1161,-2.1192,-2.1225,-2.1267,-2.1321,-2.1379,-2.1441,-2.1458,-2.1489,-2.1523,-2.1526,-2.1545,-2.156,-2.1555,-2.1562,-2.1565,-2.1545,-2.1546,-2.1547,-2.1548,0,0,-2.0847,-2.0952,-2.0958,-2.0994,-2.1071,-2.1107,-2.1149,-2.1209,-2.1235,-2.1288,-2.1325,-2.1394,-2.1413,-2.145,-2.1487,-2.151,-2.1518,-2.1527,-2.1529,-2.1524,-2.156,-2.1545,-2.1546,-2.1538,-2.1539,-2.1539,-2.1554,0,-2.0853,-2.0929,-2.0979,-2.1035,-2.1078,-2.1128,-2.1164,-2.1216,-2.1257,-2.13,-2.1346,-2.1394,-2.1414,-2.1438,-2.1462,-2.1512,-2.1526,-2.1511,-2.1573,-2.1575,-2.1556,-2.155,-2.1534,-2.1546,-2.1557,-2.1558,-2.1558,0,-2.087,-2.0922,-2.0982,-2.1056,-2.1076,-2.1107,-2.1168,-2.1208,-2.1268,-2.1297,-2.1339,-2.1377,-2.1424,-2.1435,-2.15,-2.1489,-2.1518,-2.1546,-2.1548,-2.1555,-2.1566,-2.1558,-2.1551,-2.1552,-2.1563,-2.1562,-2.1562,0,-2.0836,-2.0921,-2.0968,-2.0997,-2.1084,-2.1105,-2.1142,-2.1203,-2.1237,-2.129,-2.1313,-2.137,-2.1402,-2.1446,-2.1499,-2.1502,-2.156,-2.1575,-2.1585,-2.1584,-2.1595,-2.1594,-2.1592,-2.1613,-2.1613,-2.1613,-2.1613,0,-2.0838,-2.0873,-2.0954,-2.0983,-2.1025,-2.1083,-2.1122,-2.1164,-2.1217,-2.1256,-2.1303,-2.1339,-2.1407,-2.1451,-2.1493,-2.1541,-2.1555,-2.158,-2.1591,-2.1576,-2.1573,-2.1595,-2.1596,-2.1613,-2.1613,-2.1613,-2.1613,0,-2.0807,-2.0863,-2.0918,-2.0996,-2.1017,-2.1043,-2.1111,-2.1142,-2.1186,-2.1234,-2.1249,-2.1318,-2.1373,-2.143,-2.1504,-2.1533,-2.1579,-2.1594,-2.1559,-2.1565,-2.1572,-2.1571,-2.1586,-2.1591,-2.1607,-2.1607,-2.1606,0,-2.0804,-2.0832,-2.0914,-2.0943,-2.0979,-2.1025,-2.106,-2.1119,-2.1154,-2.1226,-2.1248,-2.1306,-2.1355,-2.144,-2.1498,-2.1555,-2.1572,-2.1573,-2.1581,-2.1565,-2.1573,-2.157,-2.1574,-2.157,-2.157,-2.1569,-2.1569,0,-2.0793,-2.082,-2.0868,-2.0926,-2.0967,-2.1015,-2.1066,-2.1088,-2.1157,-2.1194,-2.125,-2.1288,-2.1364,-2.1422,-2.1486,-2.1526,-2.1559,-2.1566,-2.1572,-2.1557,-2.1536,-2.1548,-2.1552,-2.1566,-2.1566,-2.1566,-2.1566,-2.1567,-2.0777,-2.0805,-2.0866,-2.0919,-2.0963,-2.101,-2.1043,-2.1091,-2.1139,-2.1206,-2.1238,-2.1294,-2.1356,-2.1446,-2.1485,-2.153,-2.154,-2.1548,-2.155,-2.1551,-2.1548,-2.1528,-2.1542,-2.1542,-2.1543,-2.1543,-2.1543,0,-2.0769,-2.0812,-2.0859,-2.0929,-2.0971,-2.0999,-2.1057,-2.109,-2.1139,-2.1193,-2.1241,-2.1307,-2.1363,-2.1425,-2.1485,-2.151,-2.1527,-2.1524,-2.1523,-2.1532,-2.1535,-2.1524,-2.1509,-2.1509,-2.1509,-2.1509,-2.1509,-2.1509,-2.077,-2.0819,-2.0853,-2.0924,-2.0967,-2.1023,-2.1054,-2.1097,-2.1141,-2.1212,-2.1259,-2.1299,-2.1357,-2.1422,-2.1476,-2.1493,-2.1513,-2.1505,-2.1527,-2.1529,-2.1531,-2.1534,-2.1524,-2.1509,-2.1509,-2.152,-2.152,-2.152]},{"header":{"parameterUnit":"m.s-1","parameterCategory":1,"la1":30.2991,"la2":30.254,"lo1":-89.0895,"lo2":-89.0444,"dy":0.0017,"dx":0.0017,"nx":28,"ny":28,"refTime":"2024-07-27T03:00:00:Z","depth":0,"parameterNumber":3,"parameterNumberName":"V-component_of_WINDS"},"data":[0,0,0,0,0,0,0,0,0,0,0,0,0,0,0,0,0,0,0,0,0,0,0,0,0,0,0,0,0,0,0,0,0,0,0,0,0,0,0,0,0,0,0,0,0,0,0,0,0,0,0,0,0,0,0,0,0,0,4.2565,4.2565,0,4.2526,4.2525,4.2525,4.2531,4.2532,4.2532,4.2533,4.2485,4.2483,4.2481,0,0,0,0,0,0,0,0,0,0,0,0,0,4.264,4.2638,4.2565,4.2565,4.2564,4.2526,4.2525,4.2525,4.2531,4.2532,4.2532,4.2533,4.2486,4.2483,4.2481,0,0,0,0,0,0,0,0,0,0,0,0,0,4.2604,4.2638,4.2565,4.2563,4.2562,4.2526,4.2525,4.2524,4.2531,4.2532,4.2533,4.2534,4.2486,4.2484,4.2481,4.2442,0,0,4.2472,4.2471,0,0,0,0,0,0,0,0,4.2606,4.2601,4.2564,4.2563,4.2562,4.2535,4.2534,4.2496,4.253,4.2542,4.2533,4.2534,4.25,4.2496,4.2486,4.244,4.2438,4.2472,4.247,4.2469,4.2468,0,0,0,0,0,0,0,4.2609,4.2603,4.2549,4.2563,4.2562,4.2562,4.2558,4.2527,4.2516,4.2541,4.2542,4.2537,4.25,4.2489,4.2485,4.2437,4.2472,4.2469,4.2467,4.2466,4.2355,4.2354,0,0,0,0,0,0,4.2613,4.2605,4.2551,4.2548,4.2588,4.2559,4.2555,4.2542,4.2516,4.2513,4.2537,4.2538,4.2493,4.2488,4.2483,4.2436,4.2469,4.2466,4.2464,4.2356,4.2355,4.2353,0,0,0,0,0,0,4.2614,4.2608,4.2552,4.2577,4.257,4.2557,4.2542,4.2541,4.253,4.2513,4.251,4.2528,4.2494,4.2487,4.2452,4.2434,4.2465,4.2462,4.2358,4.2356,4.2354,4.234,0,0,0,0,0,0,4.2617,4.2609,4.2595,4.2577,4.2569,4.2524,4.2541,4.2539,4.2526,4.2527,4.2504,4.2501,4.2494,4.2457,4.245,4.2431,4.246,4.2359,4.2357,4.2355,4.2342,4.2338,4.2334,0,0,0,0,0,4.2619,4.2591,4.2595,4.2588,4.2552,4.2523,4.2518,4.2514,4.2525,4.251,4.2498,4.2501,4.2437,4.2453,4.2445,4.2425,4.236,4.2357,4.2355,4.2344,4.2339,4.2334,0,0,0,0,0,0,4.2606,4.2589,4.2592,4.2558,4.2542,4.2524,4.2506,4.2508,4.2487,4.2489,4.2482,4.2476,4.2441,4.2429,4.2447,4.2385,4.24,4.2396,4.2394,4.2389,4.2386,4.2389,4.2457,0,0,0,0,0,4.2599,4.258,4.2565,4.2536,4.2528,4.2518,4.2506,4.2504,4.2486,4.2478,4.2464,4.2445,4.2421,4.2404,4.2381,4.2341,4.2334,4.2323,4.2319,4.2316,4.2312,4.2288,4.2282,4.2344,4.2344,4.2345,0,0,4.2585,4.2573,4.2561,4.2533,4.2521,4.2498,4.2513,4.2488,4.2471,4.2474,4.2441,4.243,4.2407,4.2369,4.2352,4.2358,4.2293,4.2312,4.231,4.2307,4.2285,4.2279,4.2274,4.2343,4.2343,4.2343,0,0,4.2547,4.2537,4.2512,4.2499,4.2481,4.2475,4.2469,4.245,4.2444,4.2411,4.2413,4.239,4.2349,4.2333,4.2319,4.2275,4.2276,4.2267,4.2247,4.2224,4.2219,4.2215,4.2198,4.2192,4.2263,4.2263,4.2263,0,4.253,4.2499,4.2498,4.2473,4.246,4.2465,4.2438,4.2425,4.2399,4.2389,4.2397,4.2345,4.233,4.2288,4.2278,4.2267,4.2258,4.2269,4.2221,4.2216,4.2212,4.2196,4.2189,4.2262,4.2262,4.2262,4.2263,0,4.2479,4.2457,4.2439,4.2416,4.2401,4.2375,4.2368,4.2352,4.2351,4.2344,4.2309,4.2291,4.2264,4.2254,4.2252,4.2211,4.2216,4.2223,4.2237,4.2205,4.219,4.2183,4.2261,4.2261,4.2261,4.2262,0,0,4.2431,4.2409,4.2402,4.2392,4.2372,4.2354,4.2327,4.2303,4.2289,4.2271,4.2247,4.2212,4.2218,4.2203,4.2199,4.2179,4.2144,4.2188,4.2187,4.2179,4.2096,4.2091,4.2084,4.2145,4.2144,4.2143,4.2098,0,4.2391,4.2348,4.2346,4.2305,4.2284,4.2287,4.2264,4.2248,4.224,4.2218,4.2208,4.2183,4.2194,4.2184,4.2165,4.2152,4.2127,4.2156,4.2121,4.2119,4.2126,4.2076,4.2071,4.2029,4.2092,4.2091,4.209,0,4.2339,4.2321,4.2279,4.2262,4.2253,4.2233,4.221,4.2191,4.2171,4.2167,4.215,4.2149,4.2119,4.2135,4.2093,4.2113,4.2098,4.209,4.2088,4.2084,4.2102,4.2069,4.2015,4.2009,4.2081,4.2081,4.2082,0,4.2307,4.2273,4.2243,4.2234,4.2214,4.2199,4.2189,4.2172,4.2157,4.2136,4.2127,4.2102,4.2088,4.2067,4.2058,4.2071,4.2016,4.2032,4.2009,4.201,4.1997,4.1998,4.1939,4.1989,4.1989,4.1989,4.1989,0,4.2262,4.2236,4.2229,4.2211,4.2181,4.2177,4.2147,4.2138,4.2122,4.21,4.2101,4.208,4.207,4.2046,4.2039,4.2004,4.1998,4.1992,4.199,4.1991,4.1992,4.1981,4.1983,4.1988,4.1988,4.1988,4.1989,0,4.2222,4.2217,4.2184,4.2168,4.2163,4.2142,4.2127,4.2108,4.21,4.2072,4.2065,4.2052,4.2024,4.2014,4.198,4.1974,4.1934,4.1935,4.1942,4.1941,4.1919,4.1921,4.185,4.184,4.1897,4.1897,4.1896,0,4.2194,4.2174,4.2156,4.2143,4.2134,4.2112,4.2097,4.2092,4.2077,4.2054,4.2037,4.201,4.1988,4.1944,4.1929,4.1902,4.1902,4.1879,4.1898,4.19,4.19,4.1902,4.1899,4.1875,4.1875,4.1874,4.1874,0,4.2144,4.2142,4.2123,4.2102,4.2086,4.2068,4.2052,4.204,4.2032,4.2014,4.1987,4.1971,4.1937,4.1909,4.1882,4.1869,4.1869,4.1868,4.1861,4.1862,4.1867,4.1863,4.1931,4.187,4.187,4.187,4.1871,4.1871,4.2108,4.2091,4.2076,4.2054,4.2041,4.2025,4.2007,4.1997,4.1976,4.1949,4.1947,4.1917,4.1897,4.1861,4.1847,4.1822,4.1828,4.1818,4.1815,4.1813,4.1811,4.1871,4.1817,4.1817,4.1817,4.1817,4.1817,0,4.2058,4.2048,4.2028,4.2006,4.1988,4.1993,4.1974,4.1958,4.1933,4.1916,4.1895,4.1863,4.1836,4.182,4.1793,4.1776,4.1775,4.1768,4.1769,4.1766,4.1808,4.1816,4.1769,4.1769,4.1769,4.1769,4.1769,4.1769,4.2029,4.2,4.1996,4.1959,4.1949,4.1923,4.1912,4.1896,4.1882,4.1848,4.1827,4.1817,4.1799,4.177,4.1745,4.1741,4.173,4.1723,4.1719,4.1758,4.1763,4.1768,4.1775,4.1721,4.1721,4.1679,4.1678,4.1678]}]]